This is the latest recevied weather packets stored in our database for station/object W0AKO. If no packets are shown the sender has not sent any weather packets the latest 10 day(s).
| Time | Temp. | Humidity | Pressure | Rain* | Wind** | Luminosity | Snow |
|---|---|---|---|---|---|---|---|
| 1778028737 | 22.78° C | 10% | 1009.7 hPa | 0 mm | - | 149 W/m² | - |
| 1778028433 | 22.78° C | 10% | 1009.9 hPa | 0 mm | - | 163 W/m² | - |
| 1778028131 | 22.22° C | 10% | 1009.9 hPa | 0 mm | - | 195 W/m² | - |
| 1778027826 | 22.22° C | 10% | 1009.7 hPa | 0 mm | - | 164 W/m² | - |
| 1778027523 | 22.78° C | 10% | 1009.6 hPa | 0 mm | - | 139 W/m² | - |
| 1778027219 | 22.78° C | 10% | 1009.6 hPa | 0 mm | - | 180 W/m² | - |
| 1778026915 | 22.78° C | 10% | 1009.6 hPa | 0 mm | - | 205 W/m² | - |
| 1778026611 | 22.78° C | 10% | 1009.5 hPa | 0 mm | - | 239 W/m² | - |
| 1778026308 | 22.78° C | 10% | 1009.5 hPa | 0 mm | - | 256 W/m² | - |
| 1778026005 | 23.33° C | 10% | 1009.5 hPa | 0 mm | - | 257 W/m² | - |
| 1778025703 | 22.78° C | 10% | 1009.2 hPa | 0 mm | - | 258 W/m² | - |
| 1778025401 | 22.78° C | 10% | 1009.5 hPa | 0 mm | - | 253 W/m² | - |
| 1778025098 | 23.33° C | 10% | 1009.4 hPa | 0 mm | - | 280 W/m² | - |
| 1778024795 | 22.78° C | 10% | 1009.4 hPa | 0 mm | - | 287 W/m² | - |
| 1778024491 | 22.78° C | 10% | 1009.6 hPa | 0 mm | - | 324 W/m² | - |
| 1778024189 | 22.78° C | 10% | 1009.6 hPa | 0 mm | - | 368 W/m² | - |
| 1778023886 | 22.78° C | 10% | 1009.5 hPa | 0 mm | - | 379 W/m² | - |
| 1778023583 | 23.33° C | 10% | 1009.7 hPa | 0 mm | - | 381 W/m² | - |
| 1778023281 | 23.33° C | 10% | 1009.4 hPa | 0 mm | - | 396 W/m² | - |
| 1778022978 | 22.78° C | 10% | 1009.5 hPa | 0 mm | - | 426 W/m² | - |
| 1778022676 | 23.33° C | 10% | 1009.5 hPa | 0 mm | - | 424 W/m² | - |
| 1778022374 | 23.33° C | 10% | 1009.6 hPa | 0 mm | - | 443 W/m² | - |
| 1778022070 | 23.33° C | 10% | 1009.6 hPa | 0 mm | - | 496 W/m² | - |
| 1778021767 | 23.33° C | 10% | 1009.8 hPa | 0 mm | - | 521 W/m² | - |
| 1778021463 | 23.33° C | 10% | 1009.7 hPa | 0 mm | - | 514 W/m² | - |
* Rain latest hour (hover to see other rain measurements)
** Current wind speed in m/s (hover to see current wind gust speed)